Time,TemperatureF,DewpointF,PressureIn,WindDirection,WindDirectionDegrees,WindSpeedMPH,WindSpeedGustMPH,Humidity,HourlyPrecipIn,Conditions,Clouds,dailyrainin,SoftwareType,DateUTC
2013-01-06 00:06:00,34.9,33.0,29.97,SW,217,11.0,13.0,93,0.00,,,0.00,weatherlink.com 1.10,2013-01-06 06:06:00,
2013-01-06 00:21:00,35.4,33.0,29.96,SW,219,8.0,17.0,92,0.00,,,0.00,weatherlink.com 1.10,2013-01-06 06:21:00,
2013-01-06 00:36:00,35.6,33.0,29.95,SW,219,14.0,18.0,91,0.00,,,0.00,weatherlink.com 1.10,2013-01-06 06:36:00,
2013-01-06 00:51:00,35.7,33.0,29.96,SSW,198,13.0,18.0,90,0.00,,,0.00,weatherlink.com 1.10,2013-01-06 06:51:00,
2013-01-06 01:06:00,35.6,33.0,29.95,SW,229,9.0,18.0,90,0.00,,,0.00,weatherlink.com 1.10,2013-01-06 07:06:00,
2013-01-06 01:21:00,35.6,33.0,29.95,SW,219,10.0,20.0,90,0.00,,,0.00,weatherlink.com 1.10,2013-01-06 07:21:00,
2013-01-06 01:36:00,35.5,33.0,29.95,WSW,244,9.0,17.0,90,0.00,,,0.00,weatherlink.com 1.10,2013-01-06 07:36:00,
2013-01-06 01:51:00,35.4,33.0,29.95,WSW,246,5.0,16.0,90,0.00,,,0.00,weatherlink.com 1.10,2013-01-06 07:51:00,
2013-01-06 02:06:00,35.1,33.0,29.95,SW,225,7.0,13.0,91,0.00,,,0.00,weatherlink.com 1.10,2013-01-06 08:06:00,
2013-01-06 02:21:00,34.8,33.0,29.95,SSW,213,9.0,12.0,91,0.00,,,0.00,weatherlink.com 1.10,2013-01-06 08:21:00,
2013-01-06 02:36:00,34.8,33.0,29.95,SW,219,7.0,15.0,91,0.00,,,0.00,weatherlink.com 1.10,2013-01-06 08:36:00,
2013-01-06 02:51:00,34.7,32.0,29.95,SSW,212,7.0,12.0,91,0.00,,,0.00,weatherlink.com 1.10,2013-01-06 08:51:00,
2013-01-06 03:06:00,34.7,33.0,29.95,SW,228,7.0,12.0,92,0.00,,,0.00,weatherlink.com 1.10,2013-01-06 09:06:00,
2013-01-06 03:21:00,34.7,33.0,29.95,SW,225,5.0,15.0,92,0.00,,,0.00,weatherlink.com 1.10,2013-01-06 09:21:00,
2013-01-06 03:36:00,34.6,33.0,29.94,SW,227,7.0,12.0,92,0.00,,,0.00,weatherlink.com 1.10,2013-01-06 09:36:00,
2013-01-06 03:51:00,34.5,33.0,29.94,SW,225,4.0,10.0,93,0.00,,,0.00,weatherlink.com 1.10,2013-01-06 09:51:00,
2013-01-06 04:06:00,34.7,33.0,29.94,SW,232,6.0,12.0,93,0.00,,,0.00,weatherlink.com 1.10,2013-01-06 10:06:00,
2013-01-06 04:21:00,33.4,30.0,29.94,WNW,284,6.0,15.0,88,0.00,,,0.00,weatherlink.com 1.10,2013-01-06 10:21:00,
2013-01-06 04:36:00,31.7,28.0,29.95,WNW,284,5.0,15.0,86,0.00,,,0.00,weatherlink.com 1.10,2013-01-06 10:36:00,
2013-01-06 04:51:00,30.1,27.0,29.95,WSW,254,6.0,17.0,87,0.00,,,0.00,weatherlink.com 1.10,2013-01-06 10:51:00,
2013-01-06 05:07:00,28.9,26.0,29.97,West,265,9.0,11.0,88,0.00,,,0.00,weatherlink.com 1.10,2013-01-06 11:07:00,
2013-01-06 05:22:00,28.3,25.0,29.98,West,264,9.0,16.0,87,0.00,,,0.00,weatherlink.com 1.10,2013-01-06 11:22:00,
2013-01-06 05:37:00,27.5,24.0,29.99,WNW,303,8.0,18.0,87,0.00,,,0.00,weatherlink.com 1.10,2013-01-06 11:37:00,
2013-01-06 05:52:00,26.6,23.0,29.99,West,274,6.0,16.0,86,0.00,,,0.00,weatherlink.com 1.10,2013-01-06 11:52:00,
2013-01-06 06:07:00,25.7,22.0,30.00,WNW,296,7.0,21.0,85,0.00,,,0.00,weatherlink.com 1.10,2013-01-06 12:07:00,
2013-01-06 06:22:00,24.9,21.0,30.00,West,267,5.0,20.0,86,0.00,,,0.00,weatherlink.com 1.10,2013-01-06 12:22:00,
2013-01-06 06:37:00,24.5,21.0,30.00,WSW,257,8.0,19.0,86,0.00,,,0.00,weatherlink.com 1.10,2013-01-06 12:37:00,
2013-01-06 06:52:00,23.6,20.0,30.01,NW,308,10.0,21.0,86,0.00,,,0.00,weatherlink.com 1.10,2013-01-06 12:52:00,
2013-01-06 07:07:00,23.3,20.0,30.02,WNW,296,13.0,19.0,86,0.00,,,0.00,weatherlink.com 1.10,2013-01-06 13:07:00,
2013-01-06 07:22:00,22.9,20.0,30.02,West,269,9.0,18.0,87,0.00,,,0.00,weatherlink.com 1.10,2013-01-06 13:22:00,
2013-01-06 07:37:00,22.8,19.0,30.03,WNW,291,6.0,17.0,86,0.00,,,0.00,weatherlink.com 1.10,2013-01-06 13:37:00,
2013-01-06 07:52:00,22.4,19.0,30.04,WNW,296,6.0,16.0,86,0.00,,,0.00,weatherlink.com 1.10,2013-01-06 13:52:00,
2013-01-06 08:07:00,22.3,19.0,30.04,WNW,298,4.0,15.0,86,0.00,,,0.00,weatherlink.com 1.10,2013-01-06 14:07:00,
2013-01-06 08:22:00,22.2,19.0,30.04,West,274,7.0,17.0,86,0.00,,,0.00,weatherlink.com 1.10,2013-01-06 14:22:00,
2013-01-06 08:37:00,21.8,18.0,30.05,WNW,289,17.0,17.0,86,0.00,,,0.00,weatherlink.com 1.10,2013-01-06 14:37:00,
2013-01-06 08:52:00,21.6,18.0,30.06,West,279,12.0,14.0,86,0.00,,,0.00,weatherlink.com 1.10,2013-01-06 14:52:00,
2013-01-06 09:07:00,21.3,18.0,30.08,NW,311,12.0,16.0,87,0.00,,,0.00,weatherlink.com 1.10,2013-01-06 15:07:00,
2013-01-06 09:22:00,21.9,18.0,30.09,WNW,294,6.0,16.0,86,0.00,,,0.00,weatherlink.com 1.10,2013-01-06 15:22:00,
2013-01-06 09:37:00,22.1,18.0,30.09,NW,312,7.0,15.0,85,0.00,,,0.00,weatherlink.com 1.10,2013-01-06 15:37:00,
2013-01-06 09:52:00,22.2,18.0,30.10,NW,322,13.0,16.0,84,0.00,,,0.00,weatherlink.com 1.10,2013-01-06 15:52:00,
2013-01-06 10:08:00,22.1,18.0,30.11,West,279,6.0,19.0,85,0.00,,,0.00,weatherlink.com 1.10,2013-01-06 16:08:00,
2013-01-06 10:23:00,22.9,19.0,30.11,WNW,284,11.0,20.0,84,0.00,,,0.00,weatherlink.com 1.10,2013-01-06 16:23:00,
2013-01-06 10:38:00,23.4,19.0,30.11,WSW,242,5.0,17.0,84,0.00,,,0.00,weatherlink.com 1.10,2013-01-06 16:38:00,
2013-01-06 10:53:00,23.8,20.0,30.11,NW,315,7.0,16.0,84,0.00,,,0.00,weatherlink.com 1.10,2013-01-06 16:53:00,
2013-01-06 11:08:00,24.4,20.0,30.11,WNW,291,6.0,17.0,84,0.00,,,0.00,weatherlink.com 1.10,2013-01-06 17:08:00,
2013-01-06 11:23:00,25.3,21.0,30.11,NNW,342,7.0,16.0,83,0.00,,,0.00,weatherlink.com 1.10,2013-01-06 17:23:00,
2013-01-06 11:38:00,25.7,22.0,30.11,WNW,301,10.0,20.0,84,0.00,,,0.00,weatherlink.com 1.10,2013-01-06 17:38:00,
2013-01-06 11:53:00,26.2,22.0,30.11,West,262,11.0,18.0,84,0.00,,,0.00,weatherlink.com 1.10,2013-01-06 17:53:00,
2013-01-06 12:08:00,26.6,22.0,30.11,West,274,6.0,20.0,83,0.00,,,0.00,weatherlink.com 1.10,2013-01-06 18:08:00,
2013-01-06 12:23:00,27.5,23.0,30.12,NW,307,6.0,16.0,82,0.00,,,0.00,weatherlink.com 1.10,2013-01-06 18:23:00,
2013-01-06 12:38:00,28.4,23.0,30.12,NW,317,8.0,17.0,81,0.00,,,0.00,weatherlink.com 1.10,2013-01-06 18:38:00,
2013-01-06 12:53:00,29.0,24.0,30.12,NNW,348,12.0,17.0,80,0.00,,,0.00,weatherlink.com 1.10,2013-01-06 18:53:00,
2013-01-06 13:08:00,29.7,24.0,30.13,NW,315,9.0,18.0,79,0.00,,,0.00,weatherlink.com 1.10,2013-01-06 19:08:00,
2013-01-06 13:23:00,29.9,24.0,30.13,North,355,8.0,18.0,80,0.00,,,0.00,weatherlink.com 1.10,2013-01-06 19:23:00,
2013-01-06 13:38:00,30.0,24.0,30.13,West,274,7.0,19.0,78,0.00,,,0.00,weatherlink.com 1.10,2013-01-06 19:38:00,
2013-01-06 13:53:00,30.9,25.0,30.14,NNW,337,7.0,18.0,78,0.00,,,0.00,weatherlink.com 1.10,2013-01-06 19:53:00,
2013-01-06 14:08:00,30.6,25.0,30.15,NW,308,9.0,17.0,78,0.00,,,0.00,weatherlink.com 1.10,2013-01-06 20:08:00,
2013-01-06 14:23:00,31.2,25.0,30.15,NW,313,4.0,15.0,78,0.00,,,0.00,weatherlink.com 1.10,2013-01-06 20:23:00,
2013-01-06 14:38:00,31.4,25.0,30.16,WNW,295,9.0,17.0,77,0.00,,,0.00,weatherlink.com 1.10,2013-01-06 20:38:00,
2013-01-06 15:08:00,32.2,25.0,30.19,NW,307,4.0,15.0,76,0.00,,,0.00,weatherlink.com 1.10,2013-01-06 21:08:00,
2013-01-06 15:23:00,31.9,25.0,30.19,NW,319,10.0,17.0,76,0.00,,,0.00,weatherlink.com 1.10,2013-01-06 21:23:00,
2013-01-06 15:38:00,31.6,25.0,30.20,NNW,332,7.0,11.0,76,0.00,,,0.00,weatherlink.com 1.10,2013-01-06 21:38:00,
2013-01-06 15:53:00,31.0,25.0,30.21,NNW,332,10.0,10.0,77,0.00,,,0.00,weatherlink.com 1.10,2013-01-06 21:53:00,
2013-01-06 16:08:00,30.5,24.0,30.21,NW,323,4.0,9.0,77,0.00,,,0.00,weatherlink.com 1.10,2013-01-06 22:08:00,
2013-01-06 16:23:00,29.8,24.0,30.22,NNW,333,2.0,9.0,79,0.00,,,0.00,weatherlink.com 1.10,2013-01-06 22:23:00,
2013-01-06 16:38:00,29.1,24.0,30.24,NW,312,4.0,6.0,80,0.00,,,0.00,weatherlink.com 1.10,2013-01-06 22:38:00,
2013-01-06 16:53:00,28.4,23.0,30.24,NW,319,2.0,8.0,81,0.00,,,0.00,weatherlink.com 1.10,2013-01-06 22:53:00,
2013-01-06 17:08:00,28.0,23.0,30.25,NW,306,2.0,7.0,82,0.00,,,0.00,weatherlink.com 1.10,2013-01-06 23:08:00,
2013-01-06 17:23:00,27.7,23.0,30.26,NW,317,5.0,7.0,83,0.00,,,0.00,weatherlink.com 1.10,2013-01-06 23:23:00,
2013-01-06 17:38:00,27.3,23.0,30.27,WNW,284,2.0,6.0,83,0.00,,,0.00,weatherlink.com 1.10,2013-01-06 23:38:00,
2013-01-06 17:53:00,26.9,23.0,30.28,WNW,299,0.0,4.0,84,0.00,,,0.00,weatherlink.com 1.10,2013-01-06 23:53:00,
2013-01-06 18:08:00,26.3,22.0,30.29,WNW,299,1.0,3.0,85,0.00,,,0.00,weatherlink.com 1.10,2013-01-07 00:08:00,
2013-01-06 18:24:00,25.9,22.0,30.30,WNW,299,2.0,4.0,85,0.00,,,0.00,weatherlink.com 1.10,2013-01-07 00:24:00,
2013-01-06 18:38:00,25.8,22.0,30.30,WNW,297,2.0,5.0,86,0.00,,,0.00,weatherlink.com 1.10,2013-01-07 00:38:00,
2013-01-06 18:54:00,25.4,22.0,30.31,WNW,297,3.0,4.0,86,0.00,,,0.00,weatherlink.com 1.10,2013-01-07 00:54:00,
2013-01-06 19:09:00,24.3,21.0,30.31,WNW,295,3.0,5.0,86,0.00,,,0.00,weatherlink.com 1.10,2013-01-07 01:09:00,
2013-01-06 19:24:00,23.6,21.0,30.31,West,274,2.0,4.0,88,0.00,,,0.00,weatherlink.com 1.10,2013-01-07 01:24:00,
2013-01-06 19:39:00,23.3,21.0,30.32,West,269,2.0,5.0,89,0.00,,,0.00,weatherlink.com 1.10,2013-01-07 01:39:00,
2013-01-06 19:54:00,23.4,21.0,30.33,West,274,2.0,6.0,90,0.00,,,0.00,weatherlink.com 1.10,2013-01-07 01:54:00,
2013-01-06 20:09:00,23.0,21.0,30.33,WNW,284,2.0,4.0,90,0.00,,,0.00,weatherlink.com 1.10,2013-01-07 02:09:00,
2013-01-06 20:24:00,22.5,20.0,30.34,WNW,284,1.0,3.0,90,0.00,,,0.00,weatherlink.com 1.10,2013-01-07 02:24:00,
2013-01-06 20:39:00,22.1,20.0,30.33,WNW,284,3.0,4.0,91,0.00,,,0.00,weatherlink.com 1.10,2013-01-07 02:39:00,
2013-01-06 20:54:00,21.8,20.0,30.33,WNW,284,1.0,3.0,91,0.00,,,0.00,weatherlink.com 1.10,2013-01-07 02:54:00,
2013-01-06 21:09:00,21.3,19.0,30.33,WNW,284,2.0,3.0,91,0.00,,,0.00,weatherlink.com 1.10,2013-01-07 03:09:00,
2013-01-06 21:24:00,20.9,19.0,30.32,WNW,284,2.0,3.0,92,0.00,,,0.00,weatherlink.com 1.10,2013-01-07 03:24:00,
2013-01-06 21:39:00,20.2,18.0,30.34,WNW,284,1.0,3.0,92,0.00,,,0.00,weatherlink.com 1.10,2013-01-07 03:39:00,
2013-01-06 21:54:00,19.1,17.0,30.35,WNW,284,1.0,2.0,92,0.00,,,0.00,weatherlink.com 1.10,2013-01-07 03:54:00,
2013-01-06 22:09:00,19.0,17.0,30.34,WNW,284,2.0,3.0,93,0.00,,,0.00,weatherlink.com 1.10,2013-01-07 04:09:00,
2013-01-06 22:24:00,19.4,18.0,30.34,WNW,284,1.0,2.0,94,0.00,,,0.00,weatherlink.com 1.10,2013-01-07 04:24:00,
2013-01-06 22:39:00,19.9,19.0,30.34,WNW,284,1.0,3.0,94,0.00,,,0.00,weatherlink.com 1.10,2013-01-07 04:39:00,
2013-01-06 22:54:00,19.2,18.0,30.34,WNW,284,0.0,2.0,94,0.00,,,0.00,weatherlink.com 1.10,2013-01-07 04:54:00,
2013-01-06 23:10:00,19.2,18.0,30.35,WNW,284,1.0,2.0,94,0.00,,,0.00,weatherlink.com 1.10,2013-01-07 05:10:00,
2013-01-06 23:24:00,18.1,17.0,30.35,WNW,284,0.0,3.0,94,0.00,,,0.00,weatherlink.com 1.10,2013-01-07 05:24:00,
2013-01-06 23:39:00,17.4,16.0,30.34,West,279,2.0,3.0,94,0.00,,,0.00,weatherlink.com 1.10,2013-01-07 05:39:00,
2013-01-06 23:54:00,17.3,16.0,30.35,West,274,1.0,2.0,94,0.00,,,0.00,weatherlink.com 1.10,2013-01-07 05:54:00,